Home > Weather > Sharjah > Past weeks

Flag for United Arab Emirates Weather for the Past 2 Weeks in Sharjah, Sharjah, United Arab Emirates

Now
72 °F

Scattered clouds.


Feels Like: 77 °F
Forecast: 60 / 72 °F
Wind: 17 mph from Northwest

Location: Sharjah International Airport

Current Time: Feb 12, 2016 at 12:38:26 PM

Latest Report: Feb 12, 2016 at 12:00 PM


Visibility: N/A

Pressure: 30.04 "Hg

Humidity: 47%

Dew point: 50 °F

Location of SharjahLocation

Historic Weather in Sharjah — Graph

°F

Sharjah Temperature Yesterday

Maximum temperature yesterday: 75 °F (at 12:00 PM)
Minimum temperature yesterday: 54 °F (at 7:00 AM)
Average temperature yesterday: 65 °F

High & Low Weather Summary for the Past Weeks

 TemperatureHumidityPressure
High91 °F (Feb 5, 5:00 PM)94% (Feb 7, 6:00 AM)30.27 "Hg (Feb 7, 6:00 AM)
Low50 °F (Feb 6, 4:00 AM)16% (Feb 5, 5:00 PM)29.92 "Hg (Feb 9, 7:00 AM)
Average65 °F57%30.10 "Hg
* Reported Jan 28 11:00 AM — Feb 12 11:00 AM, Sharjah, Weather by CustomWeather, © 2016

Note: Actual official high and low records may vary slightly from our data, if they occured in-between our weather recording intervals... More about our weather records

Advertising

Sharjah Weather History for the Previous 24 Hours

 ConditionsComfort  
Time TempWeatherWind HumidityBarometerVisibility
11:00 AM
Fri, Feb 12
72 °FScattered clouds.18 mph50%30.07 "HgN/A
10:00 AM72 °FScattered clouds.20 mph47%30.07 "HgN/A
9:00 AM68 °FPassing clouds.7 mph60%30.04 "HgN/A
8:00 AM61 °FPassing clouds.9 mph77%30.04 "HgN/A
7:00 AM66 °FPassing clouds.9 mph68%30.01 "HgN/A
6:00 AM64 °FPassing clouds.8 mph64%29.98 "HgN/A
5:00 AM66 °FPassing clouds.13 mph64%29.95 "HgN/A
4:00 AM66 °FClear.13 mph64%29.95 "Hg10 mi
3:00 AM66 °FClear.10 mph64%29.98 "Hg10 mi
2:00 AM66 °FClear.9 mph64%29.98 "Hg10 mi
1:00 AM66 °FPassing clouds.10 mph68%29.98 "HgN/A
12:00 AM66 °FPassing clouds.12 mph68%30.01 "HgN/A
11:00 PM
Thu, Feb 11
68 °FPassing clouds.10 mph69%30.01 "HgN/A
10:00 PM68 °FPassing clouds.9 mph69%30.01 "HgN/A
9:00 PM68 °FPassing clouds.10 mph73%30.01 "HgN/A
8:00 PM68 °FPassing clouds.9 mph73%29.98 "HgN/A
7:00 PM70 °FPassing clouds.12 mph69%29.98 "HgN/A
6:00 PM70 °FScattered clouds.9 mph64%29.95 "HgN/A
5:00 PM72 °FScattered clouds.9 mph61%29.95 "HgN/A
4:00 PM73 °FPassing clouds.13 mph57%29.95 "HgN/A
3:00 PM73 °FSunny.13 mph57%29.95 "Hg10 mi
2:00 PM73 °FSunny.13 mph53%29.95 "Hg10 mi
1:00 PM75 °FSunny.6 mph41%29.98 "Hg10 mi
12:00 PM75 °FSunny.6 mph39%30.01 "Hg10 mi
Weather by CustomWeather, © 2016

See weather overviewHow to use our weather pages